Time,TemperatureF,DewpointF,PressureIn,WindDirection,WindDirectionDegrees,WindSpeedMPH,WindSpeedGustMPH,Humidity,HourlyPrecipIn,Conditions,Clouds,dailyrainin,SoftwareType,DateUTC
2013-03-17 00:22:00,59.0,-99.9,-100.00,SSW,195,3.0,3.0,-999,-99.99,,,-99.99,,2013-03-17 05:22:00,
2013-03-17 00:32:00,59.0,-99.9,-100.00,SSW,195,3.0,3.0,-999,-99.99,,,-99.99,,2013-03-17 05:32:00,
2013-03-17 01:53:00,59.0,-99.9,-100.00,West,260,2.0,4.0,-999,-99.99,,,-99.99,,2013-03-17 06:53:00,
2013-03-17 02:00:00,60.0,-99.9,-100.00,SW,220,1.0,2.0,-999,-99.99,,,-99.99,,2013-03-17 07:00:00,
2013-03-17 02:02:00,59.0,-99.9,-100.00,West,260,2.0,4.0,-999,-99.99,,,-99.99,,2013-03-17 07:02:00,
2013-03-17 02:52:00,60.0,-99.9,-100.00,SW,220,1.0,2.0,-999,-99.99,,,-99.99,,2013-03-17 07:52:00,
2013-03-17 04:10:00,58.0,-99.9,-100.00,WSW,251,6.0,6.0,-999,-99.99,,,-99.99,,2013-03-17 09:10:00,
2013-03-17 04:53:00,58.0,-99.9,-100.00,WSW,251,6.0,6.0,-999,-99.99,,,-99.99,,2013-03-17 09:53:00,
2013-03-17 05:03:00,58.0,-99.9,-100.00,WSW,251,6.0,6.0,-999,-99.99,,,-99.99,,2013-03-17 10:03:00,
2013-03-17 08:00:00,47.0,-99.9,-100.00,SW,235,6.0,6.0,-999,-99.99,,,-99.99,,2013-03-17 13:00:00,
2013-03-17 08:53:00,47.0,-99.9,-100.00,SW,235,6.0,6.0,-999,-99.99,,,-99.99,,2013-03-17 13:53:00,
2013-03-17 11:34:00,62.0,-99.9,-100.00,NNW,341,2.0,5.0,-999,-99.99,,,-99.99,,2013-03-17 16:34:00,
2013-03-17 11:43:00,62.0,-99.9,-100.00,NNW,341,2.0,5.0,-999,-99.99,,,-99.99,,2013-03-17 16:43:00,
2013-03-17 11:53:00,62.0,-99.9,-100.00,NNW,341,2.0,5.0,-999,-99.99,,,-99.99,,2013-03-17 16:53:00,
2013-03-17 15:03:00,73.0,-99.9,-100.00,ESE,110,1.0,4.0,-999,-99.99,,,-99.99,,2013-03-17 20:03:00,
2013-03-17 15:12:00,73.0,-99.9,-100.00,ESE,110,1.0,4.0,-999,-99.99,,,-99.99,,2013-03-17 20:12:00,
2013-03-17 15:23:00,73.0,-99.9,-100.00,ESE,110,1.0,4.0,-999,-99.99,,,-99.99,,2013-03-17 20:23:00,
2013-03-17 15:33:00,76.0,-99.9,-100.00,East,86,1.0,4.0,-999,-99.99,,,-99.99,,2013-03-17 20:33:00,
2013-03-17 15:43:00,76.0,-99.9,-100.00,East,86,1.0,4.0,-999,-99.99,,,-99.99,,2013-03-17 20:43:00,
2013-03-17 15:52:00,76.0,-99.9,-100.00,East,86,1.0,4.0,-999,-99.99,,,-99.99,,2013-03-17 20:52:00,
2013-03-17 16:00:00,82.0,-99.9,-100.00,NNE,31,4.0,4.0,-999,-99.99,,,-99.99,,2013-03-17 21:00:00,
2013-03-17 16:53:00,82.0,-99.9,-100.00,NNE,31,4.0,4.0,-999,-99.99,,,-99.99,,2013-03-17 21:53:00,
2013-03-17 18:23:00,85.0,-99.9,-100.00,West,279,8.0,13.0,-999,-99.99,,,-99.99,,2013-03-17 23:23:00,
2013-03-17 18:33:00,85.0,-99.9,-100.00,West,279,8.0,13.0,-999,-99.99,,,-99.99,,2013-03-17 23:33:00,
2013-03-17 19:23:00,83.0,-99.9,-100.00,West,271,8.0,9.0,-999,-99.99,,,-99.99,,2013-03-18 00:23:00,
2013-03-17 19:33:00,83.0,-99.9,-100.00,West,271,8.0,9.0,-999,-99.99,,,-99.99,,2013-03-18 00:33:00,
2013-03-17 21:22:00,77.0,-99.9,-100.00,SW,225,0.0,7.0,-999,-99.99,,,-99.99,,2013-03-18 02:22:00,
2013-03-17 21:32:00,76.0,-99.9,-100.00,West,263,3.0,6.0,-999,-99.99,,,-99.99,,2013-03-18 02:32:00,
2013-03-17 21:42:00,76.0,-99.9,-100.00,West,263,3.0,6.0,-999,-99.99,,,-99.99,,2013-03-18 02:42:00,
2013-03-17 22:50:00,65.0,-99.9,-100.00,WSW,250,4.0,5.0,-999,-99.99,,,-99.99,,2013-03-18 03:50:00,
2013-03-17 23:33:00,65.0,-99.9,-100.00,WSW,250,4.0,5.0,-999,-99.99,,,-99.99,,2013-03-18 04:33:00,
2013-03-17 23:40:00,64.0,-99.9,-100.00,SW,232,2.0,2.0,-999,-99.99,,,-99.99,,2013-03-18 04:40:00,
2013-03-17 23:43:00,65.0,-99.9,-100.00,WSW,250,4.0,5.0,-999,-99.99,,,-99.99,,2013-03-18 04:43:00,